Location: Tamazert
(32.6352°N, 5.2072°W)
Time: 04:17:02
(UTC+00:00)

Meteor 2-10 Rocket - Pass Details

Date: 22 May 2022
Orbit: 734 x 884 km, 81.2° (Epoch: 24 June)

Event Time Altitude Azimuth Distance (km) Brightness Sun altitude
Rises 02:11:41 0° 352° (N) 3,449 7.6 -30.4°
Reaches altitude 10° 02:14:10 10° 353° (N) 2,492 6.7 -30.1°
Enters shadow 02:19:12 71° 359° (N) 881 3.8 -29.5°
